Погода в Курмыше

Россия / Нижегородская область     55°50′02″N   46°03′21″E
темп.,
°C
ветер,
м/с
пор.,
м/с
влажн.,
%
обл.,
%
осадки,
мм/ч
давл.,
гПа
погр.,
м
29 января, сб
сб2900:00−7ююв5119387 0.1 1015372
03:00−11ююв389688 0.1 1014156
06:00−16юв2410084 0.0 101346
09:00−12юв3997100 0.0 1012200
12:00−8ююв4892100 0.0 1011285
15:00−7ююв4895100 0.3 1010333
18:00−7юв4896100 0.6 1009304
21:00−7юв3896100 0.9 1008261
30 января, вс
вс3000:00−7ююв3696100 0.4 1006223
03:00−10ююв229977 0.6 100627
06:00−14ю229994 0.1 100532
09:00−14ююв229981 0.1 100519
12:00−7ю359490 0.1 1005208
15:00−6ююв369579 0.2 1004255
18:00−11юв239865 0.1 100540
21:00−14юв229989 0.1 100520
31 января, пн
пн3100:00−11юв229873 0.1 100540
03:00−14юв2310097 0.2 100635
06:00−15юв25100100 0.0 100558
09:00−9юв51193100 0.0 1005268
12:00−5ююв51195100 0.5 1004449
15:00−3юв51196100 1.4 1003492
18:00−2юв61397100 0.9 1003506
21:00−1ююв61398100 2.1 1002654
1 февраля, вт
вт100:000ю61394100 0.6 1001631
03:000ююв71496100 0.8 1000800
06:000ююв7149398 0.3 999769
09:00−1ю71391100 0.8 1000789
12:00−1ююз71189100 0.1 1001982
15:00−2ююз61291100 0.3 1001833
18:00−3ююз61290100 0.1 1003585
21:00−4ююз61290100 0.1 1004617
2 февраля, ср
ср200:00−5ююз61393100 0.3 1005693
03:00−6ююз61389100 0.3 1008520
06:00−9ююз5109399 0.0 1009274
09:00−10ю4109457 0.0 1011242
12:00−7ю4993100 0.0 1011303
15:00−5юв4896100 0.1 1010374
18:00−3вюв51397100 1.3 1008505
21:000ююв71598100 3.0 1005882